{"data":{"norad_id":62430,"epoch":"2026-09-22T20:40:40.537920Z","epoch_age_seconds":111063,"freshness":"FRESH","line1":"1 62430U 24250A   26265.86158030  .00002040  00000+0  67342-4 0  9991","line2":"2 62430  97.2773 189.5424 0001281 126.3381 233.7980 15.32546220 97504","mean_motion":15.3254622,"eccentricity":0.0001281,"inclination_deg":97.2773,"raan_deg":189.5424,"arg_perigee_deg":126.3381,"mean_anomaly_deg":233.798,"bstar":6.7342e-5,"rev_number":9750,"period_min":93.961277069999,"perigee_km":467.34160007233,"apogee_km":469.09563638172,"semimajor_km":6846.355618227,"source":"CELESTRAK","updated_at":"2026-09-23T09:00:21.403959Z"}}